Home   Weather   New York   Past weeks

Flag for USA Past Weather in New York, New York, USA — Yesterday and Last 2 Weeks

Now
32 °F

Clear.


Feels Like: 32 °F
Forecast: 29 / 36 °F
Wind: No wind

Location: New York City - Central Park

Current Time: Dec 10, 2016 at 9:35:18 pm

Latest Report: Dec 10, 2016 at 8:51 pm


Visibility: 10 mi

Pressure: 30.43 "Hg

Humidity: 59%

Dew Point: 19 °F

Location of New YorkLocation

Past Weather in New York — Graph

°F

New York Temperature Yesterday

Maximum temperature yesterday: 41 °F (at 12:51 pm)
Minimum temperature yesterday: 30 °F (at 11:51 pm)
Average temperature yesterday: 35 °F

High & Low Weather Summary for the Past Weeks

 TemperatureHumidityPressure
High60 °F (Nov 29, 6:04 pm)97% (Nov 30, 7:51 pm)30.43 "Hg (Nov 30, 7:51 pm)
Low29 °F (Dec 10, 3:51 am)31% (Dec 9, 2:51 pm)29.46 "Hg (Dec 1, 2:51 am)
Average44 °F63%30.02 "Hg
* Reported Nov 25 7:51 pm — Dec 10 7:51 pm, New York, Weather by CustomWeather, © 2016

Note: Actual official high and low records may vary slightly from our data, if they occured in-between our weather recording intervals... More about our weather records

Advertising

New York Weather History for the Previous 24 Hours

Scroll right to see more
 ConditionsComfort  
Time TempWeatherWind HumidityBarometerVisibility
7:51 pm
Sat, Dec 10
32 °FOvercast.5 mph59%30.43 "Hg10 mi
6:51 pm33 °FPassing clouds.5 mph56%30.41 "Hg10 mi
5:51 pm33 °FOvercast.6 mph54%30.40 "Hg10 mi
4:51 pm34 °FPassing clouds.8 mph52%30.37 "Hg10 mi
3:51 pm35 °FPartly sunny.10 mph44%30.35 "Hg10 mi
2:51 pm35 °FMore clouds than sun.N/A46%30.34 "Hg10 mi
1:51 pm35 °FPartly sunny.5 mph46%30.33 "Hg10 mi
12:51 pm35 °FScattered clouds.3 mph48%30.33 "Hg10 mi
11:51 am33 °FBroken clouds.5 mph54%30.36 "Hg10 mi
10:51 am33 °FBroken clouds.9 mph58%30.38 "Hg10 mi
9:51 am31 °FScattered clouds.7 mph61%30.40 "Hg10 mi
8:51 am30 °FSunny.8 mph61%30.39 "Hg10 mi
7:51 am29 °FSunny.3 mph56%30.37 "Hg10 mi
6:51 am29 °FClear.8 mph56%30.37 "Hg10 mi
5:51 am29 °FClear.N/A56%30.34 "Hg10 mi
4:51 am29 °FClear.8 mph56%30.33 "Hg10 mi
3:51 am29 °FClear.6 mph56%30.32 "Hg10 mi
2:51 am30 °FClear.7 mph51%30.31 "Hg10 mi
1:51 am30 °FClear.9 mph51%30.31 "Hg10 mi
12:51 am30 °FClear.5 mph51%30.28 "Hg10 mi
11:51 pm
Fri, Dec 9
30 °FClear.8 mph49%30.27 "Hg10 mi
10:51 pm31 °FClear.7 mph43%30.28 "Hg10 mi
9:51 pm31 °FClear.8 mph43%30.28 "Hg10 mi
Weather by CustomWeather, © 2016

See weather overviewHow to use our weather pages